Location: Capvern
(43.1036°N, 0.3160°E)
Time: 11:10:41
(UTC+00:00)

Cosmos 489 Rocket - Pass Details

Date: 01 June 2022
Orbit: 952 x 983 km, 74.0° (Epoch: 01 July)

Event Time Altitude Azimuth Distance (km) Brightness Sun altitude
Rises 02:16:09 0° 343° (NNW) 3,647 8.1 -17.4°
Reaches altitude 10° 02:18:46 10° 348° (NNW) 2,701 7.4 -17.1°
Maximum altitude 02:24:52 53° 65° (ENE) 1,176 5.3 -16.5°
Drops below altitude 10° 02:30:58 10° 141° (SE) 2,706 6.7 -15.8°
Sets 02:33:34 0° 146° (SSE) 3,653 7.3 -15.5°
